Flag for Tunisia Weather past 2 weeks in Sfax, Tunisia

Now
84 °F

Scattered clouds.


Feels Like: 88 °F
Forecast: 75 / 87 °F
Wind: 3 mph from North

Location: Sfax El-Maou

Current Time: Aug 28, 2015 at 8:40:58 AM

Latest Report: Aug 28, 2015 at 8:00 AM


Visibility: N/A

Pressure: 30.04 "Hg

Humidity: 62%

Dew point: 70 °F

Location of SfaxLocation

Historic Weather in Sfax — Graph

°F

Sfax temperature yesterday

Maximum temperature yesterday: 90 °F (at 1:00 PM)
Minimum temperature yesterday: 77 °F (at 6:00 AM)
Average temperature yesterday: 84 °F

Past Weeks' High & Low Weather Summary

 TemperatureHumidityPressure
High93 °F (Aug 13, 1:00 PM)83% (Aug 16, 6:00 AM)30.12 "Hg (Aug 16, 6:00 AM)
Low73 °F (Aug 15, 6:00 AM)26% (Aug 14, 11:00 AM)29.80 "Hg (Aug 15, 5:00 PM)
Average83 °F58%29.96 "Hg
* Reported Aug 13 7:00 AM — Aug 28 7:00 AM, Sfax, Weather by CustomWeather, © 2015

Note: Actual official high and low records may vary slightly from our data, if they occured in-between our weather recording intervals... More about our weather records

Advertising

Sfax weather history for previous 24 hours

 ConditionsComfort  
Time TempWeatherWind HumidityBarometerVisibility
7:00 AM
Fri, Aug 28
81 °FScattered clouds.3 mph70%30.04 "HgN/A
6:00 AM79 °FScattered clouds.No wind74%30.01 "HgN/A
5:00 AM81 °FPassing clouds.1 mph70%30.01 "HgN/A
4:00 AM81 °FPassing clouds.2 mph70%30.01 "HgN/A
3:00 AM82 °FPassing clouds.3 mph66%29.98 "HgN/A
2:00 AM82 °FPassing clouds.8 mph66%29.98 "HgN/A
1:00 AM82 °FPassing clouds.14 mph66%29.98 "HgN/A
12:00 AM82 °FPassing clouds.12 mph62%29.98 "HgN/A
11:00 PM
Thu, Aug 27
82 °FPassing clouds.8 mph62%30.01 "HgN/A
10:00 PM82 °FPassing clouds.5 mph62%30.01 "HgN/A
9:00 PM84 °FPassing clouds.5 mph58%30.01 "HgN/A
8:00 PM84 °FPassing clouds.3 mph62%29.98 "HgN/A
7:00 PM84 °FClear.10 mph58%29.95 "Hg10 mi
6:00 PM84 °FSunny.9 mph62%29.95 "Hg10 mi
5:00 PM86 °FSunny.14 mph59%29.95 "Hg10 mi
4:00 PM88 °FPassing clouds.14 mph49%29.95 "HgN/A
3:00 PM88 °FPassing clouds.14 mph52%29.95 "HgN/A
2:00 PM88 °FScattered clouds.12 mph55%29.98 "HgN/A
1:00 PM90 °FScattered clouds.12 mph49%29.98 "HgN/A
12:00 PM88 °FScattered clouds.8 mph43%29.98 "HgN/A
11:00 AM88 °FScattered clouds.5 mph49%30.01 "HgN/A
10:00 AM88 °FScattered clouds.5 mph49%30.01 "HgN/A
9:00 AM86 °FScattered clouds.5 mph55%29.98 "HgN/A
8:00 AM84 °FPassing clouds.5 mph62%29.98 "HgN/A
Weather by CustomWeather, © 2015

See weather overviewHow to use our weather pages